When you browse on this site, cookies collect data to enhance your experience and personalize the content and advertising you see.
Visit our Privacy Policy to learn more. By continuing to use the site, you agree to this use of cookies and data.

Meteo pe oră la Dzialek

Astăzi, 19 Septembrie, Sâmbătă

Timp Temperatura Precipitaţii Vânt Presiune Umiditate
00:00 +9°C° 0 mm 1 m/s 755 mmHg 69%
01:00 +9°C° 0 mm 1 m/s 755 mmHg 70%
02:00 +9°C° 0 mm 1 m/s 754 mmHg 71%
03:00 +8°C° 0 mm 1 m/s 754 mmHg 72%
04:00 +8°C° 0 mm 1 m/s 754 mmHg 73%
05:00 +9°C° 0 mm 1 m/s 754 mmHg 72%
06:00 +10°C° 0 mm 1 m/s 754 mmHg 70%
07:00 +10°C° 0 mm 1 m/s 754 mmHg 69%
08:00 +13°C° 0 mm 1 m/s 754 mmHg 62%
09:00 +15°C° 0 mm 1 m/s 754 mmHg 56%
10:00 +18°C° 0 mm 1 m/s 754 mmHg 49%
11:00 +19°C° 0 mm 1 m/s 754 mmHg 47%
12:00 +20°C° 0 mm 1 m/s 754 mmHg 46%
13:00 +21°C° 0 mm 1 m/s 754 mmHg 44%
14:00 +21°C° 0 mm 1 m/s 753 mmHg 46%
15:00 +20°C° 0 mm 1 m/s 753 mmHg 49%
16:00 +20°C° 0 mm 1 m/s 753 mmHg 51%
17:00 +18°C° 0 mm 1 m/s 753 mmHg 59%
18:00 +15°C° 0 mm 1 m/s 752 mmHg 67%
19:00 +13°C° 0 mm 1 m/s 752 mmHg 75%
20:00 +13°C° 0 mm 1 m/s 752 mmHg 79%
21:00 +13°C° 0 mm 1 m/s 752 mmHg 84%
22:00 +12°C° 0 mm 1 m/s 753 mmHg 88%
23:00 +12°C° 0 mm 1 m/s 753 mmHg 90%

Mâine, 20 Septembrie, Duminică

Timp Temperatura Precipitaţii Vânt Presiune Umiditate
00:00 +12°C° 0 mm 1 m/s 753 mmHg 92%
01:00 +12°C° 0 mm 1 m/s 752 mmHg 94%
02:00 +12°C° 0 mm 1 m/s 752 mmHg 94%
03:00 +11°C° 0 mm 1 m/s 752 mmHg 93%
04:00 +11°C° 0 mm 1 m/s 752 mmHg 92%
05:00 +12°C° 0 mm 1 m/s 752 mmHg 88%
06:00 +12°C° 0 mm 1 m/s 752 mmHg 83%
07:00 +12°C° 0 mm 1 m/s 752 mmHg 78%
08:00 +14°C° 0 mm 2 m/s 752 mmHg 70%
09:00 +16°C° 0 mm 2 m/s 752 mmHg 62%
10:00 +18°C° 0 mm 2 m/s 752 mmHg 54%
11:00 +19°C° 0 mm 2 m/s 752 mmHg 51%
12:00 +20°C° 0 mm 2 m/s 752 mmHg 48%
13:00 +21°C° 0 mm 2 m/s 752 mmHg 44%
14:00 +21°C° 0 mm 2 m/s 751 mmHg 45%
15:00 +21°C° 0 mm 2 m/s 751 mmHg 46%
16:00 +20°C° 0 mm 2 m/s 751 mmHg 47%
17:00 +19°C° 0 mm 1 m/s 750 mmHg 52%
18:00 +16°C° 0 mm 1 m/s 750 mmHg 56%
19:00 +14°C° 0 mm 1 m/s 750 mmHg 61%
20:00 +14°C° 0 mm 1 m/s 750 mmHg 61%
21:00 +13°C° 0 mm 1 m/s 750 mmHg 61%
22:00 +13°C° 0 mm 1 m/s 750 mmHg 61%
23:00 +12°C° 0 mm 1 m/s 750 mmHg 61%

Poimâine, 21 Septembrie, Luni

Timp Temperatura Precipitaţii Vânt Presiune Umiditate
00:00 +12°C° 0 mm 1 m/s 750 mmHg 62%
01:00 +11°C° 0 mm 1 m/s 750 mmHg 63%
02:00 +11°C° 0 mm 1 m/s 749 mmHg 63%
03:00 +10°C° 0 mm 1 m/s 749 mmHg 63%
04:00 +10°C° 0 mm 1 m/s 749 mmHg 64%
05:00 +11°C° 0 mm 1 m/s 749 mmHg 63%
06:00 +11°C° 0 mm 1 m/s 749 mmHg 63%
07:00 +11°C° 0 mm 1 m/s 749 mmHg 63%
08:00 +14°C° 0 mm 1 m/s 749 mmHg 56%
09:00 +16°C° 0 mm 2 m/s 749 mmHg 50%
10:00 +19°C° 0 mm 2 m/s 750 mmHg 43%
11:00 +20°C° 0 mm 2 m/s 749 mmHg 41%
12:00 +21°C° 0 mm 2 m/s 749 mmHg 39%
13:00 +23°C° 0 mm 2 m/s 749 mmHg 36%
14:00 +23°C° 0 mm 2 m/s 748 mmHg 39%
15:00 +23°C° 0 mm 1 m/s 748 mmHg 42%
16:00 +23°C° 0 mm 1 m/s 748 mmHg 45%
17:00 +21°C° 0 mm 1 m/s 747 mmHg 52%
18:00 +19°C° 0 mm 1 m/s 747 mmHg 58%
19:00 +15°C° 0 mm 1 m/s 747 mmHg 65%
20:00 +15°C° 0 mm 1 m/s 747 mmHg 67%
21:00 +15°C° 0 mm 1 m/s 747 mmHg 69%
22:00 +14°C° 0 mm 2 m/s 747 mmHg 71%
23:00 +14°C° 0 mm 2 m/s 746 mmHg 72%

22 Septembrie, Marţi

Timp Temperatura Precipitaţii Vânt Presiune Umiditate
00:00 +14°C° 0 mm 1 m/s 746 mmHg 73%
01:00 +14°C° 0 mm 1 m/s 746 mmHg 75%
02:00 +13°C° 0 mm 1 m/s 746 mmHg 76%
03:00 +13°C° 0 mm 1 m/s 745 mmHg 76%
04:00 +13°C° 0 mm 1 m/s 745 mmHg 77%
05:00 +14°C° 0 mm 1 m/s 745 mmHg 76%
06:00 +14°C° 0 mm 1 m/s 745 mmHg 76%
07:00 +14°C° 0 mm 1 m/s 745 mmHg 75%
08:00 +17°C° 0 mm 2 m/s 745 mmHg 68%
09:00 +19°C° 0 mm 2 m/s 745 mmHg 61%
10:00 +21°C° 0 mm 2 m/s 744 mmHg 54%
11:00 +22°C° 0 mm 3 m/s 744 mmHg 51%
12:00 +24°C° 0 mm 3 m/s 744 mmHg 47%
13:00 +25°C° 0 mm 3 m/s 743 mmHg 43%
14:00 +25°C° 0 mm 3 m/s 743 mmHg 45%
15:00 +25°C° 0 mm 3 m/s 742 mmHg 46%
16:00 +24°C° 0 mm 3 m/s 742 mmHg 47%
17:00 +22°C° 0 mm 3 m/s 742 mmHg 53%
18:00 +20°C° 0 mm 2 m/s 741 mmHg 59%
19:00 +18°C° 0 mm 2 m/s 741 mmHg 66%
20:00 +17°C° 0 mm 2 m/s 741 mmHg 67%
21:00 +17°C° 0 mm 2 m/s 741 mmHg 68%
22:00 +17°C° 0 mm 2 m/s 740 mmHg 69%
23:00 +16°C° 0 mm 2 m/s 740 mmHg 70%

23 Septembrie, Miercuri

Timp Temperatura Precipitaţii Vânt Presiune Umiditate
00:00 +16°C° 0 mm 2 m/s 740 mmHg 71%
01:00 +16°C° 0 mm 2 m/s 740 mmHg 72%
02:00 +16°C° 0 mm 2 m/s 739 mmHg 74%
03:00 +15°C° 0 mm 2 m/s 739 mmHg 76%
04:00 +15°C° 0 mm 2 m/s 739 mmHg 78%
05:00 +15°C° 0 mm 2 m/s 739 mmHg 78%
06:00 +16°C° 0 mm 2 m/s 739 mmHg 77%
07:00 +16°C° 0 mm 2 m/s 739 mmHg 77%
08:00 +18°C° 0 mm 2 m/s 739 mmHg 70%
09:00 +20°C° 0 mm 2 m/s 739 mmHg 63%
10:00 +23°C° 0 mm 2 m/s 739 mmHg 55%
11:00 +24°C° 0 mm 2 m/s 739 mmHg 53%
12:00 +25°C° 0 mm 2 m/s 738 mmHg 51%
13:00 +25°C° 0 mm 3 m/s 738 mmHg 49%
14:00 +25°C° 0 mm 2 m/s 738 mmHg 52%
15:00 +25°C° 0 mm 2 m/s 738 mmHg 54%
16:00 +24°C° 0 mm 2 m/s 737 mmHg 57%
17:00 +23°C° 0 mm 2 m/s 737 mmHg 62%
18:00 +20°C° 0 mm 2 m/s 737 mmHg 67%
19:00 +18°C° 0 mm 2 m/s 737 mmHg 72%
20:00 +18°C° 0 mm 2 m/s 737 mmHg 72%
21:00 +17°C° 0 mm 2 m/s 737 mmHg 71%
22:00 +17°C° 0 mm 2 m/s 737 mmHg 70%
23:00 +17°C° 0 mm 3 m/s 737 mmHg 67%

24 Septembrie, Joi

Timp Temperatura Precipitaţii Vânt Presiune Umiditate
00:00 +17°C° 0 mm 3 m/s 737 mmHg 65%
01:00 +17°C° 0 mm 3 m/s 737 mmHg 62%
02:00 +16°C° 0 mm 3 m/s 737 mmHg 69%
03:00 +16°C° 0 mm 3 m/s 737 mmHg 77%
04:00 +15°C° 0 mm 2 m/s 737 mmHg 84%
05:00 +15°C° 0 mm 2 m/s 738 mmHg 86%
06:00 +16°C° 0 mm 2 m/s 738 mmHg 88%
07:00 +16°C° 0 mm 2 m/s 739 mmHg 90%
08:00 +17°C° 0 mm 2 m/s 739 mmHg 83%
09:00 +18°C° 0 mm 2 m/s 739 mmHg 75%
10:00 +19°C° 0 mm 2 m/s 740 mmHg 67%
11:00 +20°C° 0 mm 2 m/s 740 mmHg 63%
12:00 +21°C° 0 mm 2 m/s 740 mmHg 58%
13:00 +23°C° 0 mm 2 m/s 740 mmHg 53%
14:00 +23°C° 0 mm 2 m/s 740 mmHg 55%
15:00 +23°C° 0 mm 2 m/s 739 mmHg 56%
16:00 +23°C° 0 mm 2 m/s 739 mmHg 57%
17:00 +20°C° 0 mm 2 m/s 739 mmHg 63%
18:00 +19°C° 0 mm 2 m/s 739 mmHg 69%
19:00 +18°C° 0 mm 2 m/s 739 mmHg 75%
20:00 +17°C° 0 mm 2 m/s 738 mmHg 77%
21:00 +17°C° 0 mm 3 m/s 738 mmHg 78%
22:00 +17°C° 0 mm 3 m/s 738 mmHg 80%
23:00 +17°C° 0 mm 3 m/s 738 mmHg 81%
Arată mai mult